TimeMST,TemperatureF,Dew PointF,Humidity,Sea Level PressureIn,VisibilityMPH,Wind Direction,Wind SpeedMPH,Gust SpeedMPH,PrecipitationIn,Events,Conditions,WindDirDegrees,DateUTC
12:15 AM,24.8,15.8,69,30.00,10.0,Calm,Calm,-,N/A,,Clear,0,2013-01-10 07:15:00
12:35 AM,21.2,15.8,80,30.00,10.0,NW,3.5,-,N/A,,Clear,320,2013-01-10 07:35:00
12:55 AM,23.0,17.6,80,29.98,10.0,Calm,Calm,-,N/A,,Clear,0,2013-01-10 07:55:00
1:15 AM,23.0,15.8,74,29.98,10.0,Calm,Calm,-,N/A,,Clear,0,2013-01-10 08:15:00
1:35 AM,24.8,15.8,69,29.97,10.0,ENE,6.9,-,N/A,,Clear,70,2013-01-10 08:35:00
1:55 AM,24.8,15.8,69,29.96,10.0,North,5.8,-,N/A,,Clear,10,2013-01-10 08:55:00
2:15 AM,24.8,17.6,74,29.96,10.0,North,5.8,-,N/A,,Clear,10,2013-01-10 09:15:00
2:35 AM,21.2,14.0,74,29.95,10.0,North,6.9,-,N/A,,Clear,360,2013-01-10 09:35:00
2:55 AM,21.2,15.8,80,29.94,10.0,North,6.9,-,N/A,,Clear,10,2013-01-10 09:55:00
3:15 AM,23.0,17.6,80,29.92,10.0,North,9.2,-,N/A,,Clear,10,2013-01-10 10:15:00
3:35 AM,23.0,15.8,74,29.90,10.0,NNE,8.1,-,N/A,,Clear,30,2013-01-10 10:35:00
3:55 AM,17.6,10.4,73,29.89,10.0,North,4.6,-,N/A,,Clear,360,2013-01-10 10:55:00
4:15 AM,17.6,12.2,79,29.88,10.0,NNW,4.6,-,N/A,,Clear,340,2013-01-10 11:15:00
4:35 AM,21.2,17.6,86,29.87,10.0,Calm,Calm,-,N/A,,Clear,0,2013-01-10 11:35:00
4:55 AM,19.4,14.0,80,29.87,10.0,Calm,Calm,-,N/A,,Clear,0,2013-01-10 11:55:00
5:35 AM,23.0,17.6,80,29.85,10.0,North,5.8,-,N/A,,Clear,10,2013-01-10 12:35:00
5:55 AM,23.0,15.8,74,29.85,10.0,Calm,Calm,-,N/A,,Clear,0,2013-01-10 12:55:00
6:35 AM,17.6,12.2,79,29.83,10.0,Calm,Calm,-,N/A,,Clear,0,2013-01-10 13:35:00
6:55 AM,21.2,15.8,80,29.82,10.0,North,3.5,-,N/A,,Clear,10,2013-01-10 13:55:00
7:15 AM,23.0,15.8,74,29.81,10.0,NNE,6.9,-,N/A,,Clear,30,2013-01-10 14:15:00
7:35 AM,23.0,15.8,74,29.82,10.0,NNE,5.8,-,N/A,,Clear,20,2013-01-10 14:35:00
8:15 AM,23.0,15.8,74,29.81,10.0,North,3.5,-,N/A,,Clear,360,2013-01-10 15:15:00
8:35 AM,23.0,15.8,74,29.80,10.0,Calm,Calm,-,N/A,,Clear,0,2013-01-10 15:35:00
9:15 AM,24.8,17.6,74,29.79,10.0,North,3.5,-,N/A,,Clear,10,2013-01-10 16:15:00
9:35 AM,26.6,19.4,74,29.77,10.0,North,3.5,-,N/A,,Clear,350,2013-01-10 16:35:00
9:55 AM,28.4,19.4,69,29.77,10.0,North,3.5,-,N/A,,Clear,10,2013-01-10 16:55:00
10:15 AM,30.2,19.4,64,29.77,10.0,Calm,Calm,-,N/A,,Clear,0,2013-01-10 17:15:00
10:35 AM,30.2,19.4,64,29.74,10.0,NNE,4.6,-,N/A,,Clear,20,2013-01-10 17:35:00
10:55 AM,30.2,19.4,64,29.73,10.0,Calm,Calm,-,N/A,,Clear,0,2013-01-10 17:55:00
11:15 AM,32.0,19.4,60,29.72,10.0,Calm,Calm,-,N/A,,Clear,0,2013-01-10 18:15:00
11:35 AM,32.0,21.2,64,29.69,10.0,Calm,Calm,-,N/A,,Clear,0,2013-01-10 18:35:00
11:55 AM,32.0,21.2,64,29.69,10.0,Calm,Calm,-,N/A,,Clear,0,2013-01-10 18:55:00
12:35 PM,33.8,21.2,60,29.66,10.0,Calm,Calm,-,N/A,,Clear,0,2013-01-10 19:35:00
12:55 PM,33.8,21.2,60,29.66,10.0,Calm,Calm,-,N/A,,Clear,0,2013-01-10 19:55:00
1:15 PM,33.8,21.2,60,29.65,10.0,Calm,Calm,-,N/A,,Clear,0,2013-01-10 20:15:00
1:35 PM,33.8,21.2,60,29.63,10.0,Calm,Calm,-,N/A,,Clear,0,2013-01-10 20:35:00
1:55 PM,33.8,23.0,65,29.63,10.0,Calm,Calm,-,N/A,,Clear,0,2013-01-10 20:55:00
2:15 PM,33.8,21.2,60,29.63,10.0,SW,3.5,-,N/A,,Clear,220,2013-01-10 21:15:00
2:35 PM,35.6,21.2,56,29.61,10.0,Calm,Calm,-,N/A,,Partly Cloudy,0,2013-01-10 21:35:00
2:55 PM,35.6,21.2,56,29.60,10.0,Calm,Calm,-,N/A,,Clear,0,2013-01-10 21:55:00
3:15 PM,35.6,23.0,60,29.60,10.0,Calm,Calm,-,N/A,,Clear,0,2013-01-10 22:15:00
3:35 PM,35.6,23.0,60,29.60,10.0,SW,3.5,-,N/A,,Clear,220,2013-01-10 22:35:00
3:55 PM,37.4,23.0,56,29.59,10.0,Calm,Calm,-,N/A,,Clear,0,2013-01-10 22:55:00
4:15 PM,35.6,23.0,60,29.59,10.0,Calm,Calm,-,N/A,,Clear,0,2013-01-10 23:15:00
4:35 PM,35.6,23.0,60,29.58,10.0,Calm,Calm,-,N/A,,Clear,0,2013-01-10 23:35:00
5:15 PM,33.8,21.2,60,29.57,10.0,WSW,3.5,-,N/A,,Clear,250,2013-01-11 00:15:00
5:35 PM,33.8,21.2,60,29.57,10.0,Calm,Calm,-,N/A,,Clear,0,2013-01-11 00:35:00
5:55 PM,32.0,21.2,64,29.56,10.0,North,3.5,-,N/A,,Clear,350,2013-01-11 00:55:00
6:15 PM,30.2,21.2,69,29.55,10.0,North,6.9,-,N/A,,Clear,360,2013-01-11 01:15:00
6:35 PM,32.0,21.2,64,29.54,10.0,North,5.8,-,N/A,,Clear,360,2013-01-11 01:35:00
6:55 PM,28.4,21.2,74,29.53,10.0,NNW,3.5,-,N/A,,Clear,340,2013-01-11 01:55:00
7:15 PM,28.4,21.2,74,29.53,10.0,North,4.6,-,N/A,,Clear,10,2013-01-11 02:15:00
7:35 PM,30.2,21.2,69,29.52,10.0,North,4.6,-,N/A,,Clear,350,2013-01-11 02:35:00
7:55 PM,24.8,19.4,80,29.53,10.0,SSE,6.9,-,N/A,,Clear,160,2013-01-11 02:55:00
8:15 PM,26.6,19.4,74,29.51,10.0,Calm,Calm,-,N/A,,Clear,0,2013-01-11 03:15:00
8:35 PM,24.8,17.6,74,29.50,10.0,South,3.5,-,N/A,,Clear,170,2013-01-11 03:35:00
8:55 PM,26.6,19.4,74,29.48,10.0,ESE,9.2,-,N/A,,Clear,110,2013-01-11 03:55:00
9:15 PM,24.8,17.6,74,29.49,10.0,SSW,6.9,-,N/A,,Clear,210,2013-01-11 04:15:00
9:35 PM,23.0,17.6,80,29.49,10.0,South,4.6,-,N/A,,Clear,190,2013-01-11 04:35:00
9:55 PM,24.8,17.6,74,29.48,10.0,WSW,5.8,-,N/A,,Clear,250,2013-01-11 04:55:00
10:35 PM,26.6,19.4,74,29.46,10.0,Calm,Calm,-,N/A,,Clear,0,2013-01-11 05:35:00
10:55 PM,26.6,19.4,74,29.45,10.0,NNW,3.5,-,N/A,,Clear,330,2013-01-11 05:55:00
11:15 PM,28.4,17.6,64,29.44,10.0,North,5.8,-,N/A,,Clear,360,2013-01-11 06:15:00
11:35 PM,28.4,17.6,64,29.44,10.0,Calm,Calm,-,N/A,,Clear,0,2013-01-11 06:35:00
11:55 PM,28.4,17.6,64,29.44,10.0,NNE,6.9,-,N/A,,Clear,30,2013-01-11 06:55:00